Location: Southlake
(32.9412°N, 97.1342°W)
Time: 01:53:09
(UTC+00:00)

Landsat 5 - Pass Details

Date: 03 December 2021
Orbit: 527 x 653 km, 98.2° (Epoch: 17 January)

Event Time Altitude Azimuth Distance (km) Brightness Sun altitude
Rises 12:37:35 0° 189° (S) 2,947 7.2 -8.1°
Reaches altitude 10° 12:39:59 10° 200° (SSW) 2,048 6.3 -7.6°
Maximum altitude 12:43:57 31° 262° (W) 1,147 4.5 -6.8°
Drops below altitude 10° 12:47:57 10° 325° (NW) 2,059 5.7 -6.1°
Sets 12:50:23 0° 335° (NNW) 2,966 6.6 -5.6°
